TimeCDT,TemperatureF,Dew PointF,Humidity,Sea Level PressureIn,VisibilityMPH,Wind Direction,Wind SpeedMPH,Gust SpeedMPH,PrecipitationIn,Events,Conditions,WindDirDegrees,DateUTC
12:53 AM,69.1,64.9,87,29.98,10.0,SSW,5.8,-,N/A,,Mostly Cloudy,210,2012-04-26 05:53:00
1:53 AM,69.8,64.4,83,29.97,10.0,South,6.9,-,N/A,,Overcast,190,2012-04-26 06:53:00
2:29 AM,69.8,64.4,83,29.96,10.0,South,9.2,-,N/A,,Scattered Clouds,180,2012-04-26 07:29:00
2:53 AM,69.1,64.9,87,29.96,10.0,South,6.9,-,N/A,,Clear,180,2012-04-26 07:53:00
3:53 AM,69.1,64.9,87,29.96,10.0,South,8.1,-,N/A,,Clear,190,2012-04-26 08:53:00
4:53 AM,69.1,64.9,87,29.95,10.0,South,8.1,-,N/A,,Partly Cloudy,180,2012-04-26 09:53:00
5:53 AM,68.0,64.9,90,29.97,9.0,SSW,5.8,-,N/A,,Partly Cloudy,200,2012-04-26 10:53:00
6:19 AM,68.0,64.4,88,29.98,9.0,South,4.6,-,N/A,,Mostly Cloudy,190,2012-04-26 11:19:00
6:53 AM,66.9,64.9,93,30.00,7.0,Calm,Calm,-,N/A,,Mostly Cloudy,0,2012-04-26 11:53:00
7:53 AM,71.1,66.0,84,30.01,8.0,SSW,6.9,-,N/A,,Scattered Clouds,200,2012-04-26 12:53:00
8:53 AM,73.0,66.9,81,30.02,10.0,SSW,12.7,19.6,N/A,,Mostly Cloudy,200,2012-04-26 13:53:00
9:53 AM,78.1,64.9,64,30.03,10.0,South,15.0,21.9,N/A,,Mostly Cloudy,190,2012-04-26 14:53:00
10:00 AM,78.8,64.4,61,30.03,10.0,South,16.1,23.0,N/A,,Mostly Cloudy,190,2012-04-26 15:00:00
10:53 AM,79.0,64.0,60,30.05,10.0,SW,13.8,-,N/A,,Mostly Cloudy,220,2012-04-26 15:53:00
11:06 AM,80.6,64.4,58,30.04,10.0,SSW,11.5,21.9,N/A,,Scattered Clouds,200,2012-04-26 16:06:00
11:53 AM,81.0,64.0,56,30.04,10.0,South,11.5,-,N/A,,Scattered Clouds,180,2012-04-26 16:53:00
12:53 PM,82.0,64.0,54,30.03,10.0,South,13.8,-,N/A,,Scattered Clouds,180,2012-04-26 17:53:00
1:53 PM,82.0,64.0,54,30.01,10.0,SSW,11.5,-,N/A,,Mostly Cloudy,200,2012-04-26 18:53:00
2:53 PM,81.0,64.9,58,30.00,10.0,South,13.8,20.7,N/A,,Mostly Cloudy,180,2012-04-26 19:53:00
3:53 PM,82.0,64.0,54,29.99,10.0,South,13.8,20.7,N/A,,Scattered Clouds,190,2012-04-26 20:53:00
4:53 PM,82.0,63.0,52,29.97,10.0,SSW,19.6,24.2,N/A,,Partly Cloudy,210,2012-04-26 21:53:00
5:53 PM,79.0,64.0,60,29.97,10.0,South,15.0,23.0,N/A,,Partly Cloudy,190,2012-04-26 22:53:00
6:53 PM,75.9,64.9,69,29.97,10.0,South,10.4,-,N/A,,Partly Cloudy,180,2012-04-26 23:53:00
7:53 PM,73.9,64.9,73,29.98,10.0,South,8.1,-,N/A,,Partly Cloudy,190,2012-04-27 00:53:00
8:53 PM,72.0,64.9,78,29.99,10.0,South,5.8,-,N/A,,Clear,180,2012-04-27 01:53:00
9:53 PM,71.1,64.9,81,29.98,10.0,South,4.6,-,N/A,,Clear,180,2012-04-27 02:53:00
10:53 PM,69.8,64.4,83,29.99,10.0,South,4.6,-,N/A,,Partly Cloudy,180,2012-04-27 03:53:00
11:53 PM,69.1,66.0,90,29.98,10.0,South,3.5,-,N/A,,Clear,180,2012-04-27 04:53:00